| time (UTC) | temp F | wind direction | speed MPH | gust MPH | rain 1hr in | rain 24hr in | rain mn in | humidity % | barometer mb |
| 20260504205524 | 65 | 22 | 13.0 | 19.0 | 0.00 | 0.00 | 0.00 | 39 | 1008.3 |
| 20260504205029 | 65 | 43 | 12.0 | 19.0 | 0.00 | 0.00 | 0.00 | 38 | 1008.5 |
| 20260504204542 | 66 | 12 | 12.0 | 19.0 | 0.00 | 0.00 | 0.00 | 38 | 1008.3 |
| 20260504204024 | 66 | 32 | 11.0 | 20.0 | 0.00 | 0.00 | 0.00 | 37 | 1008.6 |
| 20260504203524 | 66 | 27 | 12.0 | 20.0 | 0.00 | 0.00 | 0.00 | 38 | 1008.4 |
| 20260504203041 | 66 | 19 | 14.0 | 19.0 | 0.00 | 0.00 | 0.00 | 38 | 1008.3 |
| 20260504202524 | 66 | 11 | 13.0 | 21.0 | 0.00 | 0.00 | 0.00 | 38 | 1008.3 |
| 20260504202024 | 66 | 32 | 13.0 | 21.0 | 0.00 | 0.00 | 0.00 | 37 | 1008.1 |
| 20260504201543 | 66 | 44 | 12.0 | 21.0 | 0.00 | 0.00 | 0.00 | 38 | 1008.2 |
| 20260504201023 | 66 | 360 | 8.0 | 19.0 | 0.00 | 0.00 | 0.00 | 37 | 1008.3 |
| 20260504200524 | 67 | 31 | 10.0 | 19.0 | 0.00 | 0.00 | 0.00 | 37 | 1008.7 |
| 20260504200036 | 66 | 9 | 13.0 | 21.0 | 0.00 | 0.00 | 0.00 | 37 | 1008.6 |
| 20260504195522 | 66 | 28 | 12.0 | 21.0 | 0.00 | 0.00 | 0.00 | 37 | 1008.6 |
| 20260504195025 | 66 | 17 | 13.0 | 21.0 | 0.00 | 0.00 | 0.00 | 37 | 1008.4 |
| 20260504194552 | 66 | 21 | 14.0 | 22.0 | 0.00 | 0.00 | 0.00 | 37 | 1008.3 |
| 20260504194025 | 66 | 23 | 12.0 | 22.0 | 0.00 | 0.00 | 0.00 | 37 | 1008.5 |
| 20260504193525 | 67 | 5 | 14.0 | 22.0 | 0.00 | 0.00 | 0.00 | 36 | 1008.3 |
| 20260504193048 | 67 | 352 | 13.0 | 22.0 | 0.00 | 0.00 | 0.00 | 37 | 1008.3 |
| 20260504192524 | 66 | 15 | 13.0 | 22.0 | 0.00 | 0.00 | 0.00 | 37 | 1008.4 |
| 20260504192028 | 66 | 9 | 13.0 | 23.0 | 0.00 | 0.00 | 0.00 | 37 | 1008.3 |
| 20260504191607 | 66 | 44 | 14.0 | 23.0 | 0.00 | 0.00 | 0.00 | 37 | 1008.3 |
| 20260504191024 | 67 | 38 | 15.0 | 24.0 | 0.00 | 0.00 | 0.00 | 38 | 1008.2 |
| 20260504190524 | 66 | 32 | 16.0 | 24.0 | 0.00 | 0.00 | 0.00 | 38 | 1008.2 |
| 20260504190042 | 66 | 38 | 15.0 | 27.0 | 0.00 | 0.00 | 0.00 | 38 | 1008.3 |
| 20260504185523 | 67 | 15 | 18.0 | 27.0 | 0.00 | 0.00 | 0.00 | 37 | 1008.2 |
| 20260504185024 | 67 | 9 | 16.0 | 27.0 | 0.00 | 0.00 | 0.00 | 37 | 1008.2 |
| 20260504184550 | 68 | 9 | 15.0 | 22.0 | 0.00 | 0.00 | 0.00 | 37 | 1008.2 |
| 20260504184024 | 67 | 13 | 12.0 | 22.0 | 0.00 | 0.00 | 0.00 | 38 | 1008.3 |
| 20260504183525 | 66 | 22 | 16.0 | 23.0 | 0.00 | 0.00 | 0.00 | 38 | 1008.2 |
| 20260504183038 | 67 | 352 | 12.0 | 23.0 | 0.00 | 0.00 | 0.00 | 38 | 1008.2 |
| 20260504182527 | 66 | 35 | 15.0 | 23.0 | 0.00 | 0.00 | 0.00 | 38 | 1008.2 |
| 20260504182024 | 66 | 35 | 14.0 | 22.0 | 0.00 | 0.00 | 0.00 | 38 | 1008.0 |
| 20260504181541 | 66 | 30 | 14.0 | 23.0 | 0.00 | 0.00 | 0.00 | 38 | 1008.1 |
| 20260504181026 | 66 | 63 | 13.0 | 23.0 | 0.00 | 0.00 | 0.00 | 38 | 1007.9 |
| 20260504180524 | 67 | 28 | 15.0 | 26.0 | 0.00 | 0.00 | 0.00 | 37 | 1007.9 |
| 20260504180041 | 67 | 22 | 15.0 | 26.0 | 0.00 | 0.00 | 0.00 | 39 | 1007.9 |
| 20260504175523 | 67 | 30 | 17.0 | 23.0 | 0.00 | 0.00 | 0.00 | 39 | 1007.9 |
| 20260504175024 | 66 | 17 | 14.0 | 22.0 | 0.00 | 0.00 | 0.00 | 40 | 1007.8 |
| 20260504174541 | 66 | 5 | 16.0 | 22.0 | 0.00 | 0.00 | 0.00 | 40 | 1007.9 |
| 20260504174024 | 67 | 24 | 14.0 | 26.0 | 0.00 | 0.00 | 0.00 | 40 | 1007.9 |
| 20260504173523 | 67 | 36 | 17.0 | 26.0 | 0.00 | 0.00 | 0.00 | 40 | 1007.9 |
| 20260504173039 | 68 | 44 | 13.0 | 23.0 | 0.00 | 0.00 | 0.00 | 40 | 1007.7 |
| 20260504172523 | 68 | 15 | 17.0 | 24.0 | 0.00 | 0.00 | 0.00 | 40 | 1007.7 |
| 20260504172024 | 68 | 29 | 14.0 | 24.0 | 0.00 | 0.00 | 0.00 | 40 | 1007.5 |
| 20260504171540 | 69 | 17 | 17.0 | 25.0 | 0.00 | 0.00 | 0.00 | 39 | 1007.6 |
| 20260504171028 | 68 | 9 | 16.0 | 25.0 | 0.00 | 0.00 | 0.00 | 39 | 1007.5 |
| 20260504170527 | 68 | 43 | 15.0 | 25.0 | 0.00 | 0.00 | 0.00 | 39 | 1007.3 |
| 20260504151022 | 68 | 260 | 5.0 | 9.0 | 0.00 | 0.00 | 0.00 | 37 | 1007.2 |
| 20260504150526 | 67 | 285 | 6.0 | 10.0 | 0.00 | 0.00 | 0.00 | 37 | 1007.2 |
| 20260504141027 | 60 | 302 | 5.0 | 9.0 | 0.00 | 0.00 | 0.00 | 47 | 1007.5 |
| 20260504140524 | 60 | 281 | 5.0 | 10.0 | 0.00 | 0.00 | 0.00 | 48 | 1007.4 |
| 20260504130523 | 49 | 252 | 3.0 | 6.0 | 0.00 | 0.00 | 0.00 | 64 | 1007.5 |
| 20260504110527 | 40 | 0 | 0.0 | 1.0 | 0.00 | 0.00 | 0.00 | 70 | 1007.1 |
| 20260504100525 | 39 | 0 | 2.0 | 8.0 | 0.00 | 0.00 | 0.00 | 70 | 1007.6 |
| 20260504081545 | 41 | 233 | 3.0 | 5.0 | 0.00 | 0.00 | 0.00 | 68 | 1008.0 |
| 20260504081028 | 41 | 233 | 2.0 | 5.0 | 0.00 | 0.00 | 0.00 | 68 | 1008.1 |
| 20260504080525 | 41 | 235 | 3.0 | 6.0 | 0.00 | 0.00 | 0.00 | 67 | 1008.1 |
| 20260504050525 | 46 | 235 | 2.0 | 5.0 | 0.00 | 0.00 | 0.00 | 65 | 1009.9 |
| 20260504045527 | 47 | 171 | 4.0 | 6.0 | 0.00 | 0.00 | 0.00 | 62 | 1010.0 |
| 20260504045026 | 47 | 171 | 4.0 | 5.0 | 0.00 | 0.00 | 0.00 | 62 | 1010.0 |
| 20260504044538 | 48 | 171 | 3.0 | 6.0 | 0.00 | 0.00 | 0.00 | 62 | 1010.1 |
| 20260504044025 | 48 | 171 | 4.0 | 6.0 | 0.00 | 0.00 | 0.00 | 61 | 1010.0 |
| 20260504043531 | 48 | 153 | 4.0 | 6.0 | 0.00 | 0.00 | 0.00 | 62 | 1010.0 |
| 20260504043045 | 48 | 151 | 4.0 | 6.0 | 0.00 | 0.00 | 0.00 | 61 | 1010.1 |
| 20260504042525 | 49 | 155 | 3.0 | 7.0 | 0.00 | 0.00 | 0.00 | 59 | 1010.1 |
| 20260504042025 | 49 | 155 | 3.0 | 7.0 | 0.00 | 0.00 | 0.00 | 58 | 1010.2 |
| 20260504041543 | 50 | 148 | 1.0 | 7.0 | 0.00 | 0.00 | 0.00 | 57 | 1010.2 |
| 20260504041024 | 51 | 0 | 0.0 | 0.0 | 0.00 | 0.00 | 0.00 | 56 | 1010.3 |
| 20260504040528 | 52 | 0 | 0.0 | 0.0 | 0.00 | 0.00 | 0.00 | 55 | 1010.3 |
| 20260504040043 | 52 | 0 | 0.0 | 0.0 | 0.00 | 0.00 | 0.00 | 55 | 1010.3 |
| 20260504035528 | 53 | 0 | 0.0 | 0.0 | 0.00 | 0.00 | 0.00 | 54 | 1010.4 |
| 20260504035026 | 54 | 0 | 0.0 | 3.0 | 0.00 | 0.00 | 0.00 | 53 | 1010.4 |
| 20260504034552 | 55 | 0 | 0.0 | 6.0 | 0.00 | 0.00 | 0.00 | 52 | 1010.3 |
| 20260504034026 | 55 | 103 | 3.0 | 6.0 | 0.00 | 0.00 | 0.00 | 52 | 1010.2 |
| 20260504033526 | 56 | 106 | 4.0 | 6.0 | 0.00 | 0.00 | 0.00 | 51 | 1010.2 |
| 20260504033050 | 56 | 96 | 2.0 | 7.0 | 0.00 | 0.00 | 0.00 | 51 | 1010.4 |
| 20260504032525 | 57 | 88 | 3.0 | 7.0 | 0.00 | 0.00 | 0.00 | 51 | 1010.5 |
| 20260504032025 | 57 | 68 | 3.0 | 5.0 | 0.00 | 0.00 | 0.00 | 51 | 1010.6 |
| 20260504031549 | 57 | 55 | 0.0 | 5.0 | 0.00 | 0.00 | 0.00 | 50 | 1010.6 |
| 20260504031024 | 57 | 54 | 2.0 | 5.0 | 0.00 | 0.00 | 0.00 | 50 | 1010.7 |
| 20260504030526 | 58 | 58 | 2.0 | 4.0 | 0.00 | 0.00 | 0.00 | 49 | 1010.5 |
| 20260504030038 | 58 | 31 | 1.0 | 4.0 | 0.00 | 0.00 | 0.00 | 49 | 1010.4 |
| 20260504025524 | 58 | 53 | 2.0 | 4.0 | 0.00 | 0.00 | 0.00 | 49 | 1010.4 |
| 20260504025025 | 59 | 67 | 2.0 | 8.0 | 0.00 | 0.00 | 0.00 | 49 | 1010.4 |
| 20260504024543 | 59 | 49 | 3.0 | 9.0 | 0.00 | 0.00 | 0.00 | 48 | 1010.4 |
| 20260504024024 | 59 | 36 | 4.0 | 9.0 | 0.00 | 0.00 | 0.00 | 48 | 1010.4 |
| 20260504023524 | 59 | 60 | 4.0 | 16.0 | 0.00 | 0.00 | 0.00 | 48 | 1010.4 |
| 20260504023043 | 60 | 53 | 7.0 | 16.0 | 0.00 | 0.00 | 0.00 | 48 | 1010.4 |
| 20260504022528 | 59 | 5 | 10.0 | 16.0 | 0.00 | 0.00 | 0.00 | 47 | 1010.4 |
| 20260504022024 | 59 | 13 | 10.0 | 17.0 | 0.00 | 0.00 | 0.00 | 48 | 1010.4 |
| 20260504021543 | 60 | 360 | 10.0 | 17.0 | 0.00 | 0.00 | 0.00 | 48 | 1010.3 |
| 20260504021026 | 60 | 36 | 12.0 | 19.0 | 0.00 | 0.00 | 0.00 | 47 | 1010.3 |
| 20260504020525 | 61 | 12 | 14.0 | 19.0 | 0.00 | 0.00 | 0.00 | 46 | 1010.4 |
| 20260504020039 | 61 | 20 | 13.0 | 23.0 | 0.00 | 0.00 | 0.00 | 46 | 1010.7 |
| 20260504015525 | 61 | 348 | 14.0 | 23.0 | 0.00 | 0.00 | 0.00 | 45 | 1011.0 |
| 20260504015028 | 62 | 336 | 17.0 | 23.0 | 0.00 | 0.00 | 0.00 | 45 | 1010.9 |
| 20260504014540 | 63 | 346 | 17.0 | 22.0 | 0.00 | 0.00 | 0.00 | 43 | 1010.4 |
| 20260504014028 | 66 | 348 | 16.0 | 21.0 | 0.00 | 0.00 | 0.00 | 40 | 1010.1 |
| 20260504013524 | 68 | 9 | 4.0 | 12.0 | 0.00 | 0.00 | 0.00 | 33 | 1009.8 |
| 20260504013045 | 68 | 360 | 7.0 | 12.0 | 0.00 | 0.00 | 0.00 | 32 | 1009.7 |
| 20260504012526 | 68 | 360 | 5.0 | 15.0 | 0.00 | 0.00 | 0.00 | 32 | 1009.7 |
| 20260504012025 | 68 | 329 | 6.0 | 15.0 | 0.00 | 0.00 | 0.00 | 32 | 1009.7 |
| 20260504011545 | 69 | 31 | 8.0 | 13.0 | 0.00 | 0.00 | 0.00 | 32 | 1009.6 |
| 20260504011030 | 69 | 298 | 3.0 | 9.0 | 0.00 | 0.00 | 0.00 | 32 | 1009.7 |
| 20260504010523 | 68 | 296 | 4.0 | 9.0 | 0.00 | 0.00 | 0.00 | 32 | 1009.7 |
| 20260504010044 | 69 | 315 | 1.0 | 3.0 | 0.00 | 0.00 | 0.00 | 32 | 1009.7 |
| 20260504005525 | 69 | 338 | 1.0 | 7.0 | 0.00 | 0.00 | 0.00 | 32 | 1009.6 |
| 20260504005024 | 69 | 0 | 1.0 | 7.0 | 0.00 | 0.00 | 0.00 | 32 | 1009.6 |
| 20260504004542 | 69 | 296 | 1.0 | 8.0 | 0.00 | 0.00 | 0.00 | 31 | 1009.5 |
| 20260504004023 | 70 | 340 | 3.0 | 8.0 | 0.00 | 0.00 | 0.00 | 31 | 1009.5 |
| 20260504003525 | 70 | 321 | 3.0 | 8.0 | 0.00 | 0.00 | 0.00 | 31 | 1009.5 |
| 20260504003043 | 71 | 277 | 3.0 | 9.0 | 0.00 | 0.00 | 0.00 | 30 | 1009.5 |
| 20260504002529 | 71 | 252 | 5.0 | 9.0 | 0.00 | 0.00 | 0.00 | 30 | 1009.5 |
| 20260504002025 | 71 | 209 | 5.0 | 8.0 | 0.00 | 0.00 | 0.00 | 30 | 1009.7 |
| 20260504001539 | 70 | 221 | 4.0 | 9.0 | 0.00 | 0.00 | 0.00 | 30 | 1009.5 |
| 20260504001028 | 71 | 147 | 3.0 | 9.0 | 0.00 | 0.00 | 0.00 | 30 | 1009.6 |
| 20260504000524 | 71 | 197 | 4.0 | 11.0 | 0.00 | 0.00 | 0.00 | 30 | 1009.6 |
| 20260504000051 | 72 | 227 | 3.0 | 12.0 | 0.00 | 0.00 | 0.00 | 29 | 1009.7 |
| 20260503235525 | 73 | 190 | 8.0 | 12.0 | 0.00 | 0.00 | 0.00 | 29 | 1009.6 |
| 20260503235024 | 73 | 153 | 7.0 | 12.0 | 0.00 | 0.00 | 0.00 | 29 | 1009.7 |
| 20260503234544 | 73 | 154 | 5.0 | 9.0 | 0.00 | 0.00 | 0.00 | 29 | 1009.8 |
| 20260503234025 | 73 | 157 | 4.0 | 9.0 | 0.00 | 0.00 | 0.00 | 29 | 1009.9 |
| 20260503233528 | 72 | 159 | 3.0 | 9.0 | 0.00 | 0.00 | 0.00 | 29 | 1010.0 |
| 20260503233043 | 72 | 136 | 4.0 | 9.0 | 0.00 | 0.00 | 0.00 | 29 | 1010.0 |
| 20260503232528 | 72 | 144 | 2.0 | 13.0 | 0.00 | 0.00 | 0.00 | 29 | 1010.0 |
| 20260503232025 | 72 | 124 | 5.0 | 14.0 | 0.00 | 0.00 | 0.00 | 29 | 1010.1 |
| 20260503231539 | 73 | 198 | 9.0 | 14.0 | 0.00 | 0.00 | 0.00 | 29 | 1010.0 |
| 20260503231029 | 73 | 159 | 6.0 | 12.0 | 0.00 | 0.00 | 0.00 | 30 | 1010.0 |
| 20260503230525 | 72 | 128 | 8.0 | 12.0 | 0.00 | 0.00 | 0.00 | 30 | 1010.0 |
| 20260503230040 | 72 | 153 | 6.0 | 11.0 | 0.00 | 0.00 | 0.00 | 29 | 1010.2 |
| 20260503225524 | 73 | 152 | 6.0 | 14.0 | 0.00 | 0.00 | 0.00 | 29 | 1010.2 |
| 20260503225027 | 73 | 161 | 7.0 | 17.0 | 0.00 | 0.00 | 0.00 | 29 | 1010.2 |
| 20260503224538 | 73 | 183 | 6.0 | 17.0 | 0.00 | 0.00 | 0.00 | 29 | 1010.4 |
| 20260503224025 | 73 | 168 | 7.0 | 18.0 | 0.00 | 0.00 | 0.00 | 29 | 1010.3 |
| 20260503223525 | 73 | 181 | 10.0 | 18.0 | 0.00 | 0.00 | 0.00 | 30 | 1010.3 |
| 20260503223045 | 73 | 122 | 4.0 | 16.0 | 0.00 | 0.00 | 0.00 | 30 | 1010.5 |
| 20260503222526 | 74 | 136 | 6.0 | 16.0 | 0.00 | 0.00 | 0.00 | 29 | 1010.5 |
| 20260503222024 | 75 | 146 | 11.0 | 15.0 | 0.00 | 0.00 | 0.00 | 29 | 1010.5 |
| 20260503221541 | 74 | 132 | 7.0 | 15.0 | 0.00 | 0.00 | 0.00 | 29 | 1010.7 |
| 20260503221023 | 74 | 131 | 9.0 | 16.0 | 0.00 | 0.00 | 0.00 | 29 | 1010.7 |
| 20260503220524 | 74 | 137 | 9.0 | 16.0 | 0.00 | 0.00 | 0.00 | 29 | 1010.8 |
| 20260503220042 | 74 | 173 | 7.0 | 16.0 | 0.00 | 0.00 | 0.00 | 30 | 1010.9 |
| 20260503215527 | 73 | 202 | 7.0 | 16.0 | 0.00 | 0.00 | 0.00 | 30 | 1011.0 |
| 20260503215024 | 74 | 181 | 5.0 | 14.0 | 0.00 | 0.00 | 0.00 | 30 | 1011.1 |
| 20260503214540 | 74 | 202 | 9.0 | 15.0 | 0.00 | 0.00 | 0.00 | 30 | 1011.0 |
| 20260503214024 | 74 | 126 | 7.0 | 15.0 | 0.00 | 0.00 | 0.00 | 29 | 1011.3 |
| 20260503213525 | 75 | 182 | 5.0 | 19.0 | 0.00 | 0.00 | 0.00 | 29 | 1011.3 |
| 20260503213036 | 75 | 180 | 8.0 | 19.0 | 0.00 | 0.00 | 0.00 | 29 | 1011.3 |
| 20260503212525 | 74 | 206 | 6.0 | 17.0 | 0.00 | 0.00 | 0.00 | 30 | 1011.2 |
| 20260503212024 | 74 | 130 | 7.0 | 17.0 | 0.00 | 0.00 | 0.00 | 30 | 1011.5 |
| 20260503211544 | 74 | 165 | 9.0 | 17.0 | 0.00 | 0.00 | 0.00 | 30 | 1011.7 |
| 20260503211024 | 74 | 113 | 4.0 | 14.0 | 0.00 | 0.00 | 0.00 | 30 | 1012.0 |
| 20260503210524 | 74 | 121 | 7.0 | 13.0 | 0.00 | 0.00 | 0.00 | 30 | 1012.1 |
| 20260503210043 | 73 | 171 | 8.0 | 14.0 | 0.00 | 0.00 | 0.00 | 30 | 1012.1 |